Showing default

YAM-3, 48915

Orbit data source: Space-Track

YAM-3, 48915 is a payload satellite owned by Loft Orbital (US) in SSO that was launched on Wed, 30 Jun 2021 UTC via an FALCON 9 launch vehicle from the Air Force Eastern Test Range (AFETR). Payload-class satellites include a variety of spacecraft equipped with specific instruments for various scientific and technological missions. These include communications satellites like Starlink; space stations such as the ISS; scientific satellites like the Hubble; Earth observation satellites from companies like Planet Labs, Umbra, and HawkEye 360; GPS; miniature CubeSats for education and research; and military/defense satellites.

Loading next visibility...
Identifier
48915, 2021-059AN
Orbit
SSO
Country
Flag of USUS
Related business
Manufacturer
Blue Canyon
Mission
Operational Commercial Technology
Bus & Motor
YAM, Unknown motor
Mass
~80 kg wet, ~80 kg dry
Launch date (UTC)
2021-06-30 (4 years ago)
Launch vehicle
FALCON 9
Launch site
Air Force Eastern Test Range (AFETR)
Object type
Payload
Rocket body
Debris
Shape & HBR
Box + 2 Pan, 1.0 m
Radar Cross Section
0.446 m², Medium (>0.1 m² and < 1m²)

Expand to show TLE details & history
Last TLE update: 23 hours ago

TLE from 23 hours ago
0 YAM-3
1 48915U 21059AN  25310.99249018  .00015469  00000-0  36738-3 0  9992
2 48915  97.6940 119.5332 0006949  79.9058 280.2971 15.41762606242672
Epoch: 2025-11-06T23:49Z
TLE epoch observation values (Epoch: 2025-11-06T23:49:11.151Z)
Latitude
-0.0001°
Longitude
75.7939°
Altitude
443.174 km
Speed
7.647 km/s
True Right ascension
07h 58m 07s
True Declination
0° 00' 00"
Sunlit
Object was in daylight at epoch
Visualization orbit readout
Latitude
Unknown
Longitude
Unknown
Altitude
Unknown
Speed
Unknown
Apparent Right ascension
Unknown
Apparent Declination
Unknown
Sunlit
N/A
Visualization observer readout
Local Sidereal Time
18:40:39
Azimuth
Unknown
Elevation
Unknown
Doppler factor
Unknown
Orbital elements
Apogee altitude
442.593 km
Perigee altitude
433.12 km
Semi-major axis
6,815.994 km
Eccentricity
0.00069
Inclination
97.694°
RAAN
119.5332°
Arg. of periapsis
79.9058°
True anomaly
280.21874°
Mean anomaly
280.2971°
Eccentric anomaly
280.25792°
Mean motion
3.857 °/min
Orbital period
93.34 mins
BSTAR
0.00036738
Loading maneuver chart data...
Computing Atmospheric mass density...
Loading historical data...
Loading historical data...
Loading historical data...
Loading historical data...
Loading historical data...
Loading historical data...
Loading historical data...

Documentation

Showing up to 5 results
|